Flag for Germany Weather past 2 weeks in Demmin, Mecklenburg-Western Pomerania, Germany

Now
73 °F

Overcast.


Feels Like: 74 °F
Forecast: 61 / 81 °F
Wind: 9 mph from Northeast

Location: Greifswald

Current Time: Jul 24, 2014 at 3:05:55 PM

Latest Report: Jul 24, 2014 at 2:00 PM


Visibility: 16 mi

Pressure: 30.10 "Hg

Humidity: 75%

Dew point: 64 °F

Location of DemminLocation

Historic Weather in Demmin — Graph

°F

Demmin temperature yesterday

Maximum temperature yesterday: 74 °F (at 4:00 PM)
Minimum temperature yesterday: 67 °F (at 5:00 AM)
Average temperature yesterday: 70 °F

Past Weeks' High & Low Weather Summary

 TemperatureHumidityPressure
High76 °F (Jul 9, 3:00 PM)99% (Jul 19, 6:00 AM)30.22 "Hg (Jul 19, 6:00 AM)
Low56 °F (Jul 18, 5:00 AM)46% (Jul 15, 7:00 PM)29.69 "Hg (Jul 13, 7:00 PM)
Average67 °F80%29.99 "Hg
* Reported Jul 9 3:00 PM — Jul 24 1:00 PM, Demmin, Weather by CustomWeather, © 2014

Note: Actual official high and low records may vary slightly from our data, if they occured in-between our weather recording intervals... More about our weather records

Advertising

Demmin weather history for previous 24 hours

 ConditionsComfort  
Time TempWeatherWind HumidityBarometerVisibility
1:00 PM
Jul 24
72 °FOvercast.8 mph83%30.11 "Hg12 mi
12:00 PM72 °FPartly sunny.7 mph82%30.11 "Hg11 mi
10:00 AM70 °FOvercast.6 mph85%30.11 "Hg12 mi
9:00 AM69 °FOvercast.7 mph86%30.11 "Hg12 mi
8:00 AM69 °FOvercast.7 mph86%30.10 "Hg12 mi
7:00 AM68 °FScattered clouds.6 mph88%30.10 "Hg12 mi
6:00 AM67 °FPartly sunny.6 mph90%30.10 "Hg11 mi
5:00 AM66 °FPassing clouds.5 mph88%30.10 "Hg13 mi
4:00 AM65 °FPassing clouds.3 mph90%30.10 "Hg11 mi
3:00 AM65 °FPassing clouds.5 mph88%30.11 "Hg12 mi
2:00 AM66 °FClear.5 mph83%30.12 "Hg14 mi
1:00 AM67 °FClear.7 mph77%30.13 "Hg17 mi
12:00 AM68 °FClear.7 mph74%30.13 "Hg19 mi
11:00 PM
Jul 23
69 °FPassing clouds.7 mph72%30.14 "Hg19 mi
10:00 PM69 °FPassing clouds.7 mph76%30.14 "Hg19 mi
9:00 PM69 °FSunny.8 mph75%30.13 "Hg18 mi
8:00 PM70 °FSunny.8 mph72%30.14 "Hg17 mi
7:00 PM72 °FSunny.8 mph67%30.14 "Hg19 mi
6:00 PM73 °FPassing clouds.7 mph63%30.14 "Hg19 mi
5:00 PM73 °FPassing clouds.9 mph70%30.15 "Hg16 mi
4:00 PM74 °FPassing clouds.9 mph69%30.16 "Hg19 mi
3:00 PM72 °FPassing clouds.9 mph73%30.17 "Hg16 mi
Weather by CustomWeather, © 2014

See weather overviewHow to use our weather pages